THEMIS E

Last updated on Sat Apr 13 2024 01:02:32 GMT+0100 (British Summer Time)

1 30798U 07004E 24103.37140612 -.00000553 00000+0 00000+0 0 9994 2 30798 8.0696 284.1818 8317224 299.4825 347.5815 0.87832071 58918
UTC large
Height (km)
Speed (km/s)
/
Latitude / Longitude
Inclination (degrees)
Orbital Period (minutes)
Azimuth
Elevation
Range (km)
Doppler Factor

Next 0 passes for location: London (51.5072 / 0.1276)

Sorry there are no passes over London.